| time (UTC) | temp F | wind direction | speed knots | gust knots | rain 1hr in | rain 24hr in | rain mn in | humidity % | barometer mb |
| 20260504213030 | 58 | 346 | 5.2 | 13.9 | 0.00 | 0.00 | 0.00 | 37 | 1002.6 |
| 20260504211529 | 60 | 333 | 9.6 | 17.4 | 0.00 | 0.00 | 0.00 | 33 | 1002.2 |
| 20260504210027 | 61 | 357 | 7.0 | 18.2 | 0.00 | 0.00 | 0.00 | 33 | 1001.9 |
| 20260504204529 | 62 | 317 | 7.8 | 13.0 | 0.00 | 0.00 | 0.00 | 32 | 1001.8 |
| 20260504203025 | 64 | 340 | 5.2 | 13.9 | 0.00 | 0.00 | 0.00 | 32 | 1001.7 |
| 20260504201524 | 64 | 323 | 7.0 | 18.2 | 0.00 | 0.00 | 0.00 | 31 | 1001.7 |
| 20260504200024 | 64 | 335 | 5.2 | 16.5 | 0.00 | 0.00 | 0.00 | 32 | 1001.4 |
| 20260504194523 | 64 | 342 | 5.2 | 18.2 | 0.00 | 0.00 | 0.00 | 32 | 1001.5 |
| 20260504193023 | 65 | 340 | 7.8 | 12.2 | 0.00 | 0.00 | 0.00 | 32 | 1001.0 |
| 20260504191523 | 65 | 340 | 9.6 | 20.0 | 0.00 | 0.00 | 0.00 | 31 | 1001.0 |
| 20260504190022 | 65 | 326 | 7.0 | 16.5 | 0.00 | 0.00 | 0.00 | 33 | 1000.7 |
| 20260504184531 | 66 | 338 | 4.3 | 13.9 | 0.00 | 0.00 | 0.00 | 34 | 1000.9 |
| 20260504183026 | 66 | 352 | 9.6 | 17.4 | 0.00 | 0.00 | 0.00 | 31 | 1001.0 |
| 20260504181520 | 66 | 324 | 7.8 | 18.2 | 0.00 | 0.00 | 0.00 | 31 | 1000.8 |
| 20260504180022 | 66 | 341 | 6.1 | 13.0 | 0.00 | 0.00 | 0.00 | 31 | 1000.5 |
| 20260504174519 | 66 | 333 | 6.1 | 13.0 | 0.00 | 0.00 | 0.00 | 30 | 1000.2 |
| 20260504173017 | 67 | 295 | 4.3 | 12.2 | 0.00 | 0.00 | 0.00 | 33 | 1000.0 |
| 20260504171516 | 66 | 302 | 3.5 | 12.2 | 0.00 | 0.00 | 0.00 | 34 | 1000.1 |
| 20260504150103 | 62 | 224 | 4.3 | 12.2 | 0.00 | 0.00 | 0.00 | 50 | 998.5 |
| 20260504081505 | 51 | 160 | 0.0 | 1.7 | 0.00 | 0.00 | 0.00 | 57 | 999.7 |
| 20260504044530 | 53 | 195 | 0.0 | 1.7 | 0.00 | 0.00 | 0.00 | 48 | 1002.3 |
| 20260504043033 | 54 | 153 | 0.0 | 1.7 | 0.00 | 0.00 | 0.00 | 47 | 1002.6 |
| 20260504041529 | 55 | 160 | 0.0 | 1.7 | 0.00 | 0.00 | 0.00 | 46 | 1002.7 |
| 20260504040024 | 55 | 170 | 0.0 | 1.7 | 0.00 | 0.00 | 0.00 | 45 | 1003.0 |
| 20260504034523 | 56 | 177 | 0.9 | 1.7 | 0.00 | 0.00 | 0.00 | 44 | 1003.3 |
| 20260504033020 | 56 | 214 | 0.0 | 2.6 | 0.00 | 0.00 | 0.00 | 44 | 1003.6 |
| 20260504031519 | 57 | 199 | 0.0 | 1.7 | 0.00 | 0.00 | 0.00 | 43 | 1003.7 |
| 20260504030019 | 58 | 160 | 0.0 | 0.9 | 0.00 | 0.00 | 0.00 | 41 | 1003.8 |
| 20260504024518 | 59 | 156 | 0.0 | 1.7 | 0.00 | 0.00 | 0.00 | 39 | 1003.8 |
| 20260504023016 | 61 | 117 | 0.0 | 2.6 | 0.00 | 0.00 | 0.00 | 38 | 1003.8 |
| 20260504021515 | 62 | 180 | 0.9 | 1.7 | 0.00 | 0.00 | 0.00 | 37 | 1003.9 |
| 20260504020014 | 63 | 222 | 0.0 | 1.7 | 0.00 | 0.00 | 0.00 | 34 | 1004.0 |
| 20260504014514 | 64 | 216 | 0.0 | 1.7 | 0.00 | 0.00 | 0.00 | 33 | 1004.1 |
| 20260504013019 | 66 | 198 | 0.0 | 1.7 | 0.00 | 0.00 | 0.00 | 32 | 1004.1 |
| 20260504011512 | 67 | 293 | 0.0 | 4.3 | 0.00 | 0.00 | 0.00 | 30 | 1004.1 |
| 20260504010011 | 69 | 295 | 0.9 | 4.3 | 0.00 | 0.00 | 0.00 | 29 | 1004.1 |
| 20260504004528 | 70 | 272 | 1.7 | 4.3 | 0.00 | 0.00 | 0.00 | 27 | 1004.3 |
| 20260504003008 | 72 | 221 | 0.9 | 5.2 | 0.00 | 0.00 | 0.00 | 26 | 1004.3 |
| 20260504001523 | 72 | 290 | 1.7 | 6.1 | 0.00 | 0.00 | 0.00 | 26 | 1004.3 |
| 20260504000007 | 72 | 279 | 1.7 | 8.7 | 0.00 | 0.00 | 0.00 | 26 | 1004.3 |
| 20260503234504 | 72 | 248 | 2.6 | 10.4 | 0.00 | 0.00 | 0.00 | 25 | 1004.6 |
| 20260503233004 | 72 | 304 | 2.6 | 8.7 | 0.00 | 0.00 | 0.00 | 25 | 1004.7 |
| 20260503231502 | 72 | 304 | 3.5 | 8.7 | 0.00 | 0.00 | 0.00 | 25 | 1004.6 |
| 20260503230002 | 73 | 354 | 2.6 | 7.8 | 0.00 | 0.00 | 0.00 | 25 | 1004.7 |
| 20260503224607 | 73 | 304 | 3.5 | 10.4 | 0.00 | 0.00 | 0.00 | 25 | 1004.8 |
| 20260503223111 | 73 | 208 | 2.6 | 7.8 | 0.00 | 0.00 | 0.00 | 26 | 1004.9 |
| 20260503221554 | 72 | 300 | 6.1 | 10.4 | 0.00 | 0.00 | 0.00 | 25 | 1005.0 |
| 20260503220053 | 73 | 295 | 3.5 | 7.8 | 0.00 | 0.00 | 0.00 | 24 | 1005.1 |
| 20260503214556 | 72 | 323 | 3.5 | 8.7 | 0.00 | 0.00 | 0.00 | 22 | 1005.3 |